Flag for U.S.A. Weather past 2 weeks in Leesburg, Virginia, U.S.A.

Now
34 °F

Sunny.


Feels Like: 23 °F
Forecast: 22 / 35 °F
Wind: 18 mph from Northwest

Location: Leesburg / Godfrey

Current Time: Jan 28, 2015 at 3:18:18 PM

Latest Report: Jan 28, 2015 at 2:55 PM


Visibility: 10 mi

Pressure: 30.23 "Hg

Humidity: 41%

Dew point: 12 °F

Location of LeesburgLocation

Historic Weather in Leesburg — Graph

°F

Leesburg temperature yesterday

Maximum temperature yesterday: 32 °F (at 11:15 AM)
Minimum temperature yesterday: 28 °F (at 12:15 AM)
Average temperature yesterday: 30 °F

Past Weeks' High & Low Weather Summary

 TemperatureHumidityPressure
High46 °F (Jan 19, 2:15 PM)100% (Jan 14, 11:55 AM)30.58 "Hg (Jan 14, 11:55 AM)
Low23 °F (Jan 13, 9:35 PM)41% (Jan 28, 1:55 PM)29.48 "Hg (Jan 24, 2:35 PM)
Average33 °F83%30.04 "Hg
* Reported Jan 13 2:15 PM — Jan 28 2:15 PM, Leesburg, Weather by CustomWeather, © 2014

Note: Actual official high and low records may vary slightly from our data, if they occured in-between our weather recording intervals... More about our weather records

Advertising

Leesburg weather history for previous 24 hours

 ConditionsComfort  
Time TempWeatherWind HumidityBarometerVisibility
2:15 PM
Jan 28
34 °FSunny.13 mph41%30.24 "Hg10 mi
1:55 PM34 °FSunny.17 mph41%30.23 "Hg10 mi
1:15 PM32 °FSunny.14 mph47%30.24 "Hg10 mi
12:55 PM32 °FSunny.15 mph47%30.24 "Hg10 mi
12:35 PM32 °FSunny.15 mph44%30.25 "Hg10 mi
12:15 PM32 °FSunny.15 mph44%30.25 "Hg10 mi
11:55 AM30 °FSunny.12 mph47%30.26 "Hg10 mi
11:35 AM30 °FSunny.14 mph47%30.26 "Hg10 mi
11:15 AM30 °FSunny.17 mph47%30.26 "Hg10 mi
10:55 AM28 °FSunny.14 mph51%30.26 "Hg10 mi
10:35 AM28 °FSunny.16 mph51%30.26 "Hg10 mi
10:15 AM28 °FSunny.13 mph51%30.26 "Hg10 mi
9:55 AM27 °FSunny.17 mph54%30.24 "Hg10 mi
9:35 AM27 °FSunny.16 mph54%30.24 "Hg10 mi
9:15 AM27 °FSunny.15 mph54%30.24 "Hg10 mi
8:55 AM25 °FSunny.16 mph59%30.23 "Hg10 mi
8:35 AM25 °FSunny.14 mph54%30.21 "Hg10 mi
8:15 AM23 °FSunny.17 mph58%30.21 "Hg10 mi
7:55 AM23 °FSunny.16 mph63%30.20 "Hg10 mi
7:35 AM23 °FSunny.21 mph63%30.18 "Hg10 mi
7:15 AM23 °FClear.20 mph63%30.18 "Hg10 mi
6:55 AM23 °FClear.15 mph63%30.17 "Hg10 mi
6:35 AM23 °FClear.14 mph63%30.16 "Hg10 mi
6:15 AM23 °FClear.12 mph63%30.15 "Hg10 mi
5:55 AM23 °FClear.16 mph63%30.14 "Hg10 mi
5:35 AM23 °FClear.17 mph63%30.12 "Hg10 mi
5:15 AM23 °FClear.13 mph68%30.11 "Hg10 mi
4:55 AM23 °FClear.20 mph68%30.10 "Hg10 mi
4:35 AM23 °FClear.17 mph68%30.10 "Hg10 mi
4:15 AM23 °FClear.16 mph68%30.09 "Hg10 mi
3:55 AM23 °FClear.16 mph68%30.09 "Hg10 mi
3:35 AM23 °FClear.13 mph74%30.08 "Hg10 mi
3:15 AM25 °FClear.17 mph69%30.08 "Hg10 mi
2:55 AM25 °FClear.14 mph69%30.08 "Hg10 mi
2:35 AM25 °FClear.14 mph74%30.07 "Hg10 mi
2:15 AM25 °FClear.18 mph69%30.06 "Hg10 mi
1:55 AM27 °FClear.21 mph69%30.05 "Hg10 mi
1:15 AM27 °FClear.17 mph69%30.03 "Hg10 mi
12:55 AM27 °FClear.20 mph69%30.02 "Hg10 mi
12:35 AM27 °FClear.18 mph74%30.02 "Hg10 mi
12:15 AM27 °FClear.17 mph74%30.01 "Hg10 mi
11:55 PM
Jan 27
28 °FClear.23 mph69%30.01 "Hg10 mi
11:35 PM28 °FClear.18 mph69%30.01 "Hg10 mi
11:15 PM28 °FClear.23 mph69%29.99 "Hg10 mi
10:55 PM28 °FClear.17 mph69%29.98 "Hg10 mi
10:15 PM28 °FClear.14 mph69%29.96 "Hg10 mi
9:55 PM28 °FClear.13 mph69%29.96 "Hg10 mi
9:35 PM28 °FClear.12 mph74%29.95 "Hg10 mi
9:15 PM28 °FClear.14 mph74%29.94 "Hg10 mi
8:55 PM30 °FClear.15 mph69%29.93 "Hg10 mi
8:15 PM30 °FClear.15 mph69%29.92 "Hg10 mi
7:55 PM30 °FPassing clouds.17 mph75%29.91 "Hg10 mi
7:35 PM30 °FPassing clouds.20 mph75%29.90 "Hg10 mi
7:15 PM30 °FOvercast.26 mph75%29.90 "Hg10 mi
6:55 PM32 °FMostly cloudy.24 mph69%29.89 "Hg10 mi
6:15 PM32 °FOvercast.12 mph75%29.89 "Hg10 mi
5:55 PM32 °FOvercast.18 mph75%29.88 "Hg10 mi
5:35 PM32 °FOvercast.18 mph80%29.87 "Hg10 mi
5:15 PM32 °FCloudy.13 mph80%29.87 "Hg10 mi
4:55 PM32 °FLight snow. Overcast.13 mph87%29.87 "Hg10 mi
4:15 PM32 °FOvercast.15 mph87%29.85 "Hg10 mi
3:55 PM32 °FOvercast.13 mph87%29.85 "Hg10 mi
3:35 PM32 °FOvercast.17 mph87%29.84 "Hg10 mi
3:15 PM32 °FOvercast.13 mph87%29.84 "Hg10 mi
Weather by CustomWeather, © 2014

See weather overviewHow to use our weather pages